Preview of NWS' New Version of Forecast
This preview is not operational and should not be used for support decisions.

Regional Weather Roundup (RWR)

Issued by National Weather Service (NWS)

                            
000
ASCA42 TJSJ 242310
RWRPR 
PUERTO RICO/U.S. VIRGIN ISLANDS HOURLY WEATHER ROUNDUP
NATIONAL WEATHER SERVICE SAN JUAN PR
700 PM AST SUN MAR 24 2019

PRZ001>002-007>008-010-250000-
PUERTO RICO
  
CITY           SKY/WX    TMP DP  RH WIND       PRES   REMARKS
SAN JUAN LMM   PTCLDY    79  70  73 E10       30.05R                  
AGUADILLA      MOCLDY    73  72  94 E12G18    30.06R                  
CEIBA          CLOUDY    81  72  74 E10       30.06R                  
$$

VIZ001>002-250000-
U.S. VIRGIN ISLANDS
  
CITY           SKY/WX    TMP DP  RH WIND       PRES   REMARKS
CHARLOTTE AMA  LGT RAIN  77  70  78 E9G21     30.05R                  
CHRISTIANSTED  PTCLDY    79  70  73 E12       30.05R                  
$$

HOURLY WEATHER ROUNDUP FOR THE NEWS MEDIA
  
CITY           SKY/WX    TMP DP  RH WIND       PRES   REMARKS
ORLANDO        FAIR      76  57  51 SE13      30.17S                  
NEW YORK       CLOUDY    55  28  35 SW13      30.04R                  
NEWARK         CLOUDY    59  17  19 SW14      30.02S                  
CHICAGO        LGT RAIN  46  43  89 NE12      30.06S                  
HARTFORD       FAIR      46  30  53 SW10G20   29.97S                  
BOSTON         CLOUDY    56  16  20 W14       29.92R                  
DALLAS         MOSUNNY   81  63  54 S16G25    29.92F                  
PHILADELPHIA   MOCLDY    59  21  23 SW15      30.09R                  
LOS ANGELES    MOSUNNY   64  52  64 W12       30.15F                  
WASHINGTON DC  CLOUDY    62  22  21 CALM      30.07F